Regional Weather Roundup
Issued by NWS

Home | Current Version | Previous Version | Graphics & Text | Print | Product List | Glossary On
Versions: 1 2 3 4 5 6 7 8 9 10 11 12 13 14 15 16 17 18 19 20 21 22 23 24 25 26 27 28 29 30 31 32 33 34 35 36 37 38 39 40 41 42 43 44 45 46 47 48 49 50
000
ASUS45 KPSR 251100
RWRAZ

PRELIMINARY ARIZONA REGIONAL HOURLY WEATHER ROUNDUP
NATIONAL WEATHER SERVICE PHOENIX AZ
400 AM MST SUN JAN 25 2015

NOTE: FAIR INDICATES FEW OR NO CLOUDS BELOW 12,000 FEET WITH NO
SIGNIFICANT WEATHER AND/OR OBSTRUCTIONS TO VISIBILITY.

AZZ001>003-036-251200-
NORTHWEST ARIZONA

CITY           SKY/WX    TMP DP  RH WIND       PRES   REMARKS
KINGMAN        CLEAR     42  20  41 NE8       30.24S
$$

AZZ004>008-015-016-018-251200-
NORTH CENTRAL ARIZONA

CITY           SKY/WX    TMP DP  RH WIND       PRES   REMARKS
GRAND CANYON   CLEAR     25  16  68 CALM      30.32F
PRESCOTT       PTCLDY    27  16  63 S8        30.25F WCI  19
FLAGSTAFF      CLEAR     40  16  37 E13G24    30.28F WCI  32
PAYSON         CLEAR     43  14  31 N7        30.24S
$$

AZZ009>014-017-251200-
NORTHEAST ARIZONA

CITY           SKY/WX    TMP DP  RH WIND       PRES   REMARKS
WINSLOW        PTCLDY    24  19  81 CALM      30.30F
SAINT JOHNS    CLEAR     24  18  77 S6        30.28F WCI  17
WINDOW ROCK    CLEAR     22  16  78 CALM      30.28F
$$

AZZ023-251200-
GREATER PHOENIX AREA

CITY           SKY/WX    TMP DP  RH WIND       PRES   REMARKS
PHOENIX        CLEAR     52  25  35 CALM      30.07S
LUKE AFB       NOT AVBL
DEER VALLEY    CLEAR     53  18  25 NE9       30.08F
SCOTTSDALE     CLEAR     51  22  31 NE5       30.09F
$$

AZZ027-028-251200-
SOUTHWEST MARICOPA COUNTY AND PINAL COUNTY

CITY           SKY/WX    TMP DP  RH WIND       PRES   REMARKS
CASA GRANDE    PTCLDY    52  16  24 CALM      30.08F
GILA BEND      FAIR      49  13  23 NE5       30.06S
$$

AZZ503-504-507>509-251200-
SOUTHEAST ARIZONA

CITY           SKY/WX    TMP DP  RH WIND       PRES   REMARKS
TUCSON         CLOUDY    50  17  27 SE13      30.12S
DAVIS-MONTHAN  MOCLDY    52  14  21 S9        30.09F
NOGALES        CLOUDY    45  16  31 E6        30.13F
SIERRA VISTA   CLOUDY    42  16  34 S8        30.16F
SAFFORD        PTCLDY    37  18  46 E6        30.17F WCI  32
$$

AZZ020-021-025-026-031-251200-
SOUTHWEST ARIZONA

CITY           SKY/WX    TMP DP  RH WIND       PRES   REMARKS
YUMA           NOT AVBL
$$

CAZ031-033-041-043-047-048-061-251200-
SOUTHERN CALIFORNIA

CITY           SKY/WX    TMP DP  RH WIND       PRES   REMARKS
DOWNTOWN L.A.  CLEAR     53  36  52 CALM      30.03S
L.A. AIRPORT   CLEAR     55  34  45 CALM      30.03S
SAN DIEGO      PTCLDY    56  36  47 CALM      30.02S
BURBANK        CLEAR     52  26  36 CALM      30.03F
ONTARIO        CLEAR     74  12   9 NE22G33   30.03F
RIVERSIDE      CLEAR     53  25  33 VRB6      30.07F
PALM SPRINGS   CLEAR     62  19  19 W8        30.10F
EL CENTRO NAS  CLEAR     45  21  38 W8        30.06F
IMPERIAL       CLEAR     47  23  38 W5        30.05F
BLYTHE         CLEAR     53  23  31 CALM      30.10R
$$

NVZ020-UTZ003-251200-
SOUTHERN NEVADA-UTAH

CITY           SKY/WX    TMP DP  RH WIND       PRES   REMARKS
LAS VEGAS      NOT AVBL
SALT LAKE CITY CLOUDY    33  30  88 CALM      30.46F
$$

NMZ009-TXZ055-251200-
NEW MEXICO-WEST TEXAS

CITY           SKY/WX    TMP DP  RH WIND       PRES   REMARKS
ALBUQUERQUE    PTCLDY    30  19  63 SE5       30.25F WCI  25
EL PASO        MOCLDY    32  25  75 NE5       30.20F WCI  27
$$


........................KEY........................
SKY/WX - SKY CONDITION/WEATHER
TMP    - TEMPERATURE IN FAHRENHEIT
DP     - DEW POINT IN FAHRENHEIT
RH     - RELATIVE HUMIDITY IN PERCENT
WIND   - DIRECTION AND SPEED IN MILES PER HOUR (MPH)
VRB    - VARIABLE WIND DIRECTION
PRES   - MEAN SEA LEVEL PRESSURE IN INCHES OF MERCURY
         F - FALLING PRESSURE   R - RISING PRESSURE
         S - STEADY PRESSURE
VSB    - VISIBILITY IN MILES
HX     - HEAT INDEX IN FAHRENHEIT
WCI    - WIND CHILL INDEX IN FAHRENHEIT
TC     - TEMPERATURE IN CELSIUS WHICH IS ALSO KNOWN AS
         TEMPERATURE IN CENTIGRADE
AFB    - AIR FORCE BASE
         LUKE AFB IS LUKE AIR FORCE BASE
         DAVIS-MONTHAN IS DAVIS-MONTHAN AIR FORCE BASE
NAS    - NAVAL AIR STATION
         EL CENTRO NAS IS EL CENTRO NAVAL AIR STATION
N/A    - NOT AVAILABLE


USA.gov is the U.S. government's official web portal to all federal, state and local government web resources and services.